User: anonymous   Login
Location: Asheville, NC
(35.6000°N, 82.5500°W)
Time: 20:48:05
(UTC-05:00)
Language:

FO-29 - Orbit

View from above orbital plane
View from above orbital plane
View from above satellite
View from above satellite

Ground track
Ground track

The orbit data is extracted from the following two-line orbital elements,

1 24278U 96046B   19046.13695604 -.00000002  00000-0  33873-4 0  9993
2 24278  98.5180 216.4207 0350066 200.3523 158.3370 13.53088958111092
Epoch (UTC): 15 February 2019 03:17:13
Eccentricity: 0.0350066
inclination: 98.5180°
perigee height: 800 km
apogee height: 1321 km
right ascension of ascending node: 216.4207°
argument of perigee: 200.3523°
revolutions per day: 13.53088958
mean anomaly at epoch: 158.3370°
orbit number at epoch: 11109

The dashed part of the orbit path shows where the satellite is in the earth's shadow,  

DLR